Wind_Speed
11 11 11 11 11 12 12 11 12 12 12 12 13 13 13 13 14 14 14 14 14 13 12 12 12 12 11 12 11 11 11 10 9 8 8 7 7 7 6 6 6 6 6
10 11 11 10 11 12 12 11 12 12 12 12 13 12 13 13 13 13 14 14 13 13 13 12 12 11 12 12 11 11 10 10 9 8 8 8 7 7 6 6 6 6 6
10 10 10 11 10 11 11 11 12 12 12 12 13 13 13 12 13 13 14 13 13 12 12 12 12 12 12 12 11 11 10 10 9 9 8 8 7 7 6 6 6 6 6
9 10 10 10 10 11 11 11 12 12 12 12 13 13 12 12 13 12 12 12 13 12 12 12 13 12 12 11 11 10 10 10 9 9 8 8 7 7 7 6 6 6 6
9 9 9 9 10 10 11 11 12 12 13 13 14 13 12 13 12 11 12 12 12 12 12 12 12 11 11 11 11 10 10 10 9 9 8 7 7 7 7 7 6 6 6
9 9 9 9 10 10 11 12 12 12 12 13 13 13 12 13 12 11 12 12 12 12 12 11 11 11 11 10 10 10 10 10 9 8 8 7 7 7 6 6 6 6 5
9 8 8 9 10 10 11 11 12 12 12 12 13 13 12 12 12 12 11 12 11 11 11 11 11 10 10 10 9 9 10 9 8 7 7 7 6 6 6 5 5 5 5
9 8 8 8 9 10 10 11 11 11 12 12 12 12 12 11 12 11 11 11 11 11 11 11 10 9 9 9 9 9 8 8 7 7 6 6 5 5 5 5 5 5 4
10 9 9 9 9 9 10 11 11 11 11 11 11 11 11 10 11 11 10 10 10 10 10 9 9 9 9 8 8 8 8 7 7 6 6 5 5 5 4 4 4 4 3
11 10 10 10 9 9 9 10 10 10 10 10 10 10 10 10 10 10 9 9 9 9 9 8 8 8 9 8 8 8 7 7 6 6 6 5 5 4 4 4 4 3 3
12 12 10 10 9 10 9 9 10 10 10 9 9 8 9 9 9 9 8 8 8 8 8 8 7 8 8 8 8 7 7 6 6 5 5 4 4 4 4 4 3 3 3
12 12 11 11 10 10 10 9 10 9 9 9 8 7 7 7 7 8 8 7 7 7 7 7 7 7 7 7 7 6 6 5 4 4 4 4 3 3 3 3 2 2 2
13 12 11 11 10 9 9 9 9 9 8 8 8 7 7 7 7 7 7 6 7 7 6 6 7 6 6 6 5 5 4 3 2 2 2 2 2 1 1 1 1 1 0
14 13 12 11 11 10 9 9 9 8 8 7 7 7 7 7 6 6 6 5 6 6 6 6 5 5 4 4 3 2 1 1 1 1 1 1 1 1 2 1 1 1 1
14 13 13 12 11 11 9 8 8 8 7 6 6 6 6 6 5 4 4 4 4 4 4 4 4 4 3 2 2 1 1 1 1 1 1 1 2 2 2 2 1 2 3
14 14 13 12 12 11 10 9 7 7 7 7 6 5 5 4 3 3 3 3 3 4 3 3 3 3 2 2 2 2 3 3 2 2 2 3 3 4 4 3 3 3 3
14 14 13 13 12 12 11 10 8 7 6 7 6 5 4 3 2 2 1 2 2 3 3 3 2 2 2 2 2 2 3 3 4 4 4 5 5 5 5 5 5 5 5
13 13 13 13 13 12 12 11 10 8 6 6 5 4 3 3 2 2 1 0 0 1 2 2 2 3 2 2 3 3 3 4 4 5 6 6 6 6 6 6 6 6 7
13 13 12 12 12 12 12 11 9 8 7 5 5 3 3 2 2 1 1 1 0 1 2 2 3 3 3 3 4 4 5 5 5 6 6 7 7 7 8 7 7 7 8
14 13 12 11 11 11 11 10 9 8 7 6 4 4 3 2 2 2 2 1 2 2 2 2 3 3 3 4 5 5 5 6 6 7 7 8 8 8 8 8 8 9 9
14 13 13 12 11 10 10 9 8 8 7 6 5 4 3 3 3 3 3 3 3 3 3 3 4 4 5 5 5 6 7 7 7 7 8 8 9 9 9 9 9 10 11
14 13 13 12 12 11 10 9 8 8 7 6 5 4 4 4 4 4 4 4 3 3 4 5 5 5 5 6 6 7 8 8 9 9 9 9 10 10 10 10 11 12 12
13 13 13 12 12 11 10 9 9 9 8 7 6 5 5 5 5 5 4 5 5 5 6 6 6 6 7 7 8 8 8 9 10 10 11 11 12 12 12 13 13 13 13
11 12 12 12 12 11 10 9 9 9 9 8 8 7 7 7 7 6 6 6 6 6 7 7 7 7 8 8 8 8 9 10 11 12 12 13 13 13 14 14 14 14 14
10 11 11 12 12 12 11 9 9 9 9 9 9 8 8 8 7 7 7 7 7 8 8 8 8 9 9 9 10 10 11 12 12 13 13 14 14 15 15 16 16 15 15
10 10 10 11 11 12 11 10 10 10 10 10 10 10 9 8 8 8 8 8 8 8 9 9 10 10 10 11 11 11 12 13 14 14 13 14 15 15 16 16 16 17 17
Wind_Direction
93 94 97 103 107 109 107 105 105 108 110 109 107 107 109 106 106 112 109 107 109 112 113 111 113 112 110 109 107 107 107 110 112 112 113 115 117 116 116 117 121 126 129
96 98 100 101 105 104 105 106 106 106 110 112 113 109 107 106 105 109 107 103 106 109 110 112 113 112 110 107 106 107 108 108 110 110 114 115 115 113 115 120 124 126 127
98 100 102 104 105 105 106 107 108 110 112 113 111 109 107 109 109 108 109 105 107 106 108 110 113 111 108 106 106 106 106 107 108 109 110 114 116 116 118 119 121 126 126
99 102 104 104 103 104 106 107 106 107 112 114 111 108 107 112 109 108 110 107 108 108 108 108 106 106 107 108 107 106 106 107 108 106 107 109 113 116 118 118 122 126 127
98 101 103 105 104 106 107 108 108 106 107 111 109 106 105 110 111 109 112 109 108 109 111 108 106 106 109 108 108 109 108 109 108 104 104 106 112 117 118 121 124 125 129
94 99 103 109 108 110 109 110 108 107 106 110 111 110 107 107 110 113 113 109 110 109 109 107 106 108 109 109 111 111 108 107 105 101 101 106 108 110 114 120 122 125 131
90 96 101 110 114 116 114 112 111 109 108 109 112 113 112 111 112 113 112 113 112 111 111 110 108 109 109 108 109 111 109 105 101 98 98 103 109 112 115 119 122 126 129
86 92 102 109 113 116 114 113 112 111 109 111 114 113 111 111 112 112 110 112 113 114 114 113 112 108 106 107 109 111 108 105 103 99 96 100 109 116 115 113 124 126 129
82 88 96 102 108 111 113 113 113 113 112 111 112 114 114 112 112 113 112 114 115 117 118 118 115 110 109 110 109 108 107 107 105 99 94 95 104 114 116 115 120 120 125
81 85 93 98 103 108 112 114 114 112 114 114 113 114 116 116 116 116 115 117 118 118 118 117 116 115 114 111 109 109 105 104 104 99 95 95 100 106 111 113 115 118 117
80 82 88 94 100 105 111 113 115 113 112 112 112 111 116 116 113 115 117 120 123 121 118 116 117 118 118 115 113 111 106 100 103 95 96 96 95 96 99 104 111 113 119
77 80 85 88 94 100 108 111 113 112 111 111 109 109 111 115 113 114 116 122 125 125 121 114 122 123 121 123 119 113 109 105 99 89 88 90 86 81 88 99 102 108 116
74 76 84 85 88 94 100 105 108 111 110 111 109 110 111 114 114 112 114 125 130 132 128 123 130 129 126 128 123 115 110 104 92 85 73 79 77 52 64 89 99 77 59
74 76 81 83 83 87 93 97 100 103 107 110 109 106 110 115 114 112 111 121 131 137 135 133 134 140 141 137 129 129 127 126 80 26 23 38 19 350 347 334 325 334 312
70 74 77 78 80 81 86 91 94 97 103 108 110 108 109 114 118 122 118 125 133 136 143 148 144 150 162 169 162 179 208 223 271 307 316 321 319 318 318 314 306 307 316
67 70 72 75 76 76 79 85 88 92 97 102 101 98 98 100 107 126 125 121 138 142 146 157 160 158 176 193 209 227 240 249 268 284 287 293 297 301 300 311 324 317 321
66 67 70 73 74 74 75 77 82 86 92 97 96 95 91 82 79 96 111 136 154 156 166 184 190 200 213 227 245 252 250 258 271 275 283 288 290 292 294 300 304 304 305
61 64 66 68 71 72 70 70 74 76 77 82 85 88 81 69 65 68 88 95 182 205 203 205 219 229 242 247 257 271 276 278 282 284 286 289 284 288 292 295 298 298 298
59 62 63 64 66 66 65 66 67 68 68 71 75 76 70 59 50 37 37 7 348 274 245 247 248 243 257 273 275 281 288 285 284 287 287 287 284 284 290 295 293 295 296
55 58 60 58 58 56 56 59 60 59 58 57 63 58 43 28 19 4 343 334 324 305 294 288 271 267 272 278 283 284 286 287 286 287 286 285 286 288 291 292 292 292 295
50 53 53 51 48 45 44 47 50 48 45 45 45 41 27 8 356 342 334 325 318 307 309 306 294 290 283 284 282 284 285 285 288 290 288 285 286 288 290 291 292 293 293
47 48 46 43 41 39 36 36 37 32 30 28 27 18 1 348 336 325 313 309 307 304 308 305 295 287 287 287 286 286 286 284 286 289 290 288 285 285 286 287 290 291 292
42 41 39 37 31 27 26 26 25 23 21 16 10 1 342 334 327 322 311 301 302 299 302 301 297 289 289 291 289 288 288 285 285 287 288 287 286 285 285 284 287 286 285
33 34 34 30 24 19 16 16 17 12 9 5 354 347 341 328 319 313 311 299 298 298 299 297 298 291 291 293 292 291 291 291 289 289 286 286 286 286 287 286 288 287 285
23 25 27 25 20 15 12 11 9 6 2 358 352 344 336 331 324 318 310 304 303 300 299 300 295 296 295 294 292 291 290 290 290 291 288 288 289 287 286 286 287 286 286
15 16 17 16 13 10 7 4 0 358 353 353 351 348 340 334 329 322 312 307 308 306 302 297 294 294 294 296 295 293 292 293 291 290 289 290 290 291 288 288 287 287 286
Height
5880 5879 5879 5879 5878 5878 5878 5878 5877 5877 5878 5878 5878 5878 5878 5878 5879 5879 5880 5881 5882 5882 5883 5884 5884 5885 5886 5886 5887 5887 5888 5888 5889 5889 5890 5890 5890 5891 5891 5891 5891 5891 5892
5882 5881 5881 5881 5880 5880 5879 5879 5880 5880 5880 5880 5880 5880 5880 5880 5881 5881 5882 5883 5884 5884 5885 5886 5886 5887 5888 5888 5889 5889 5889 5890 5890 5891 5891 5891 5891 5892 5892 5892 5892 5892 5892
5883 5883 5882 5882 5882 5882 5881 5881 5881 5881 5881 5881 5882 5882 5882 5882 5883 5883 5884 5885 5886 5886 5887 5888 5888 5889 5889 5890 5890 5891 5891 5891 5892 5892 5892 5892 5892 5893 5893 5893 5893 5893 5893
5884 5884 5884 5884 5884 5883 5883 5883 5883 5883 5883 5883 5883 5884 5884 5884 5885 5886 5886 5887 5888 5888 5889 5890 5890 5891 5891 5891 5892 5892 5893 5893 5893 5894 5894 5893 5894 5894 5894 5894 5894 5894 5894
5886 5886 5885 5885 5885 5885 5885 5885 5885 5885 5885 5885 5885 5886 5886 5886 5887 5888 5888 5889 5890 5890 5891 5891 5892 5893 5893 5893 5894 5894 5894 5895 5895 5895 5895 5895 5895 5895 5895 5895 5895 5895 5895
5887 5887 5887 5887 5887 5887 5887 5887 5887 5887 5887 5887 5887 5888 5888 5888 5889 5889 5890 5891 5892 5892 5893 5893 5894 5894 5894 5895 5895 5896 5896 5896 5896 5896 5896 5896 5896 5896 5896 5896 5896 5896 5896
5889 5889 5888 5888 5888 5888 5889 5889 5889 5889 5889 5889 5889 5890 5890 5891 5891 5892 5892 5893 5893 5894 5895 5895 5896 5896 5896 5896 5897 5897 5897 5898 5898 5898 5897 5898 5897 5897 5897 5897 5897 5897 5897
5891 5890 5890 5890 5890 5890 5890 5890 5891 5891 5891 5891 5891 5892 5892 5893 5893 5894 5894 5895 5895 5896 5897 5897 5897 5898 5898 5898 5898 5899 5899 5899 5899 5899 5899 5899 5899 5899 5898 5898 5898 5898 5898
5892 5892 5891 5891 5891 5891 5892 5892 5893 5893 5893 5893 5893 5894 5894 5895 5895 5896 5896 5897 5897 5898 5898 5899 5899 5899 5899 5900 5900 5900 5900 5900 5900 5900 5900 5900 5900 5900 5900 5899 5899 5899 5899
5895 5894 5893 5893 5893 5893 5893 5894 5895 5895 5895 5896 5896 5896 5896 5897 5897 5898 5898 5898 5899 5899 5900 5900 5900 5900 5901 5901 5901 5902 5902 5902 5902 5902 5901 5901 5901 5901 5900 5900 5899 5900 5899
5897 5896 5895 5895 5895 5895 5895 5896 5896 5897 5897 5897 5898 5898 5898 5898 5899 5899 5899 5900 5900 5901 5901 5901 5902 5902 5902 5902 5903 5903 5903 5903 5903 5903 5902 5902 5902 5901 5901 5900 5900 5900 5900
5899 5898 5898 5897 5897 5897 5897 5897 5898 5898 5898 5899 5899 5899 5900 5900 5900 5900 5901 5901 5901 5902 5902 5902 5902 5903 5903 5904 5904 5904 5904 5904 5903 5903 5903 5903 5903 5902 5902 5901 5901 5901 5900
5902 5901 5900 5899 5899 5899 5899 5899 5899 5900 5900 5900 5901 5901 5901 5901 5901 5901 5902 5902 5902 5903 5903 5903 5903 5904 5904 5905 5905 5905 5905 5904 5904 5904 5904 5903 5903 5903 5902 5902 5901 5901 5901
5904 5903 5902 5902 5901 5901 5901 5901 5901 5901 5902 5902 5902 5902 5902 5902 5902 5902 5903 5903 5903 5904 5904 5904 5905 5905 5905 5905 5905 5906 5905 5905 5905 5904 5904 5904 5903 5903 5902 5902 5902 5901 5900
5907 5906 5905 5904 5904 5903 5903 5903 5903 5903 5903 5904 5904 5904 5904 5904 5904 5904 5904 5904 5904 5905 5905 5905 5905 5905 5906 5906 5906 5906 5906 5905 5905 5905 5904 5904 5903 5903 5902 5901 5901 5901 5900
5909 5908 5907 5906 5906 5905 5905 5905 5904 5904 5904 5905 5905 5905 5905 5905 5904 5905 5905 5905 5905 5905 5905 5905 5906 5906 5906 5906 5906 5906 5905 5905 5905 5904 5904 5903 5903 5902 5902 5901 5900 5900 5899
5912 5911 5910 5909 5908 5907 5907 5906 5906 5906 5906 5906 5906 5906 5906 5906 5905 5905 5905 5905 5905 5905 5905 5905 5906 5906 5906 5906 5905 5905 5905 5905 5904 5904 5903 5903 5902 5902 5901 5901 5900 5899 5898
5915 5913 5912 5911 5910 5909 5909 5908 5908 5907 5907 5907 5907 5907 5906 5906 5906 5906 5906 5905 5905 5905 5905 5905 5905 5905 5905 5905 5905 5905 5904 5904 5904 5903 5903 5902 5901 5901 5900 5899 5899 5898 5897
5917 5916 5915 5913 5912 5911 5911 5910 5909 5909 5908 5908 5908 5908 5907 5907 5907 5906 5906 5906 5905 5905 5905 5905 5905 5905 5905 5904 5904 5904 5903 5903 5902 5902 5902 5901 5900 5899 5899 5898 5897 5897 5896
5920 5918 5917 5916 5915 5913 5912 5911 5911 5910 5909 5909 5908 5908 5908 5907 5907 5907 5906 5906 5905 5905 5905 5904 5904 5904 5904 5903 5903 5903 5902 5901 5901 5900 5900 5899 5899 5898 5897 5896 5896 5895 5894
5922 5920 5919 5918 5917 5915 5914 5913 5912 5911 5910 5910 5909 5908 5908 5907 5907 5906 5906 5906 5905 5904 5904 5904 5903 5903 5902 5902 5902 5901 5901 5900 5899 5899 5898 5898 5897 5896 5895 5895 5894 5893 5892
5924 5923 5921 5920 5918 5917 5915 5914 5913 5912 5911 5910 5910 5909 5908 5907 5906 5906 5905 5905 5904 5904 5903 5903 5902 5902 5901 5901 5900 5900 5899 5899 5898 5897 5896 5896 5895 5894 5893 5892 5891 5890 5889
5926 5925 5923 5921 5920 5918 5917 5915 5914 5913 5912 5911 5910 5909 5908 5907 5906 5905 5904 5904 5903 5902 5902 5901 5901 5901 5900 5899 5899 5898 5898 5897 5896 5895 5894 5893 5893 5892 5891 5890 5888 5887 5886
5928 5926 5925 5923 5921 5919 5918 5917 5915 5913 5912 5911 5910 5908 5907 5906 5905 5904 5903 5903 5902 5901 5901 5900 5900 5899 5898 5897 5897 5896 5896 5895 5894 5893 5892 5891 5890 5889 5887 5886 5885 5883 5882
5930 5928 5926 5924 5922 5920 5919 5917 5915 5914 5912 5911 5909 5908 5907 5905 5904 5903 5902 5902 5901 5900 5899 5899 5898 5897 5896 5895 5895 5894 5893 5892 5891 5890 5889 5888 5886 5885 5884 5883 5881 5880 5879
5931 5929 5927 5925 5923 5921 5919 5917 5916 5914 5912 5910 5909 5907 5906 5904 5903 5902 5901 5900 5899 5898 5897 5896 5896 5895 5894 5893 5892 5891 5890 5889 5888 5887 5885 5884 5883 5881 5880 5879 5877 5876 5875